| time (UTC) | temp F | wind direction | speed knots | gust knots | rain 1hr in | rain 24hr in | rain mn in | humidity % | barometer mb |
| 20260505093004 | 68 | 193 | 0.9 | 3.5 | 0.00 | 0.00 | 0.00 | 92 | 1009.7 |
| 20260505092504 | 68 | 207 | 0.9 | 2.6 | 0.00 | 0.00 | 0.00 | 91 | 1009.7 |
| 20260505092004 | 68 | 200 | 0.9 | 3.5 | 0.00 | 0.00 | 0.00 | 91 | 1009.9 |
| 20260505091504 | 68 | 205 | 0.9 | 3.5 | 0.00 | 0.00 | 0.00 | 91 | 1010.0 |
| 20260505091004 | 68 | 203 | 0.9 | 3.5 | 0.00 | 0.00 | 0.00 | 91 | 1010.0 |
| 20260505090504 | 68 | 196 | 0.9 | 2.6 | 0.00 | 0.00 | 0.00 | 91 | 1009.8 |
| 20260505090004 | 68 | 195 | 0.9 | 1.7 | 0.00 | 0.00 | 0.00 | 91 | 1009.9 |
| 20260505085504 | 68 | 194 | 0.9 | 1.7 | 0.00 | 0.00 | 0.00 | 91 | 1009.9 |
| 20260505085025 | 68 | 197 | 0.9 | 2.6 | 0.00 | 0.00 | 0.00 | 91 | 1010.0 |
| 20260505084525 | 68 | 191 | 0.9 | 2.6 | 0.00 | 0.00 | 0.00 | 91 | 1010.0 |
| 20260505084004 | 68 | 186 | 0.9 | 4.3 | 0.00 | 0.00 | 0.00 | 90 | 1009.9 |
| 20260505083504 | 68 | 184 | 0.9 | 4.3 | 0.00 | 0.00 | 0.00 | 90 | 1009.9 |
| 20260505083004 | 68 | 179 | 1.7 | 6.1 | 0.00 | 0.00 | 0.00 | 90 | 1010.1 |
| 20260505082504 | 68 | 175 | 0.9 | 6.1 | 0.00 | 0.00 | 0.00 | 90 | 1010.2 |
| 20260505082004 | 68 | 188 | 0.9 | 2.6 | 0.00 | 0.00 | 0.00 | 90 | 1010.2 |
| 20260505081504 | 68 | 194 | 0.9 | 3.5 | 0.00 | 0.00 | 0.00 | 90 | 1010.3 |
| 20260505081004 | 68 | 197 | 0.9 | 3.5 | 0.00 | 0.00 | 0.00 | 90 | 1010.3 |
| 20260505080525 | 68 | 205 | 0.9 | 2.6 | 0.00 | 0.00 | 0.00 | 89 | 1010.2 |
| 20260505080025 | 68 | 187 | 0.9 | 3.5 | 0.00 | 0.00 | 0.00 | 89 | 1010.1 |
| 20260505075504 | 68 | 175 | 0.9 | 3.5 | 0.00 | 0.00 | 0.00 | 89 | 1010.1 |
| 20260505075025 | 69 | 177 | 0.9 | 3.5 | 0.00 | 0.00 | 0.00 | 89 | 1010.2 |
| 20260505074504 | 69 | 191 | 0.9 | 3.5 | 0.00 | 0.00 | 0.00 | 89 | 1010.4 |
| 20260505074025 | 69 | 197 | 0.9 | 4.3 | 0.00 | 0.00 | 0.00 | 88 | 1010.3 |
| 20260505073504 | 69 | 192 | 0.9 | 4.3 | 0.00 | 0.00 | 0.00 | 88 | 1010.3 |
| 20260505073025 | 69 | 192 | 1.7 | 4.3 | 0.00 | 0.00 | 0.00 | 88 | 1010.3 |
| 20260505072504 | 69 | 200 | 1.7 | 4.3 | 0.00 | 0.00 | 0.00 | 88 | 1010.3 |
| 20260505072004 | 69 | 207 | 1.7 | 4.3 | 0.00 | 0.00 | 0.00 | 88 | 1010.4 |
| 20260505071504 | 69 | 202 | 1.7 | 4.3 | 0.00 | 0.00 | 0.00 | 88 | 1010.4 |
| 20260505071004 | 69 | 214 | 1.7 | 3.5 | 0.00 | 0.00 | 0.00 | 88 | 1010.5 |
| 20260505070504 | 69 | 215 | 1.7 | 3.5 | 0.00 | 0.00 | 0.00 | 88 | 1010.6 |
| 20260505070004 | 69 | 196 | 1.7 | 3.5 | 0.00 | 0.00 | 0.00 | 88 | 1010.5 |
| 20260505065525 | 69 | 192 | 0.9 | 3.5 | 0.00 | 0.00 | 0.00 | 88 | 1010.5 |
| 20260505065004 | 69 | 203 | 0.9 | 2.6 | 0.00 | 0.00 | 0.00 | 87 | 1010.6 |
| 20260505064525 | 69 | 202 | 0.9 | 4.3 | 0.00 | 0.00 | 0.00 | 87 | 1010.7 |
| 20260505064004 | 69 | 190 | 1.7 | 6.1 | 0.00 | 0.00 | 0.00 | 87 | 1010.6 |
| 20260505063504 | 69 | 181 | 1.7 | 6.1 | 0.00 | 0.00 | 0.00 | 87 | 1010.8 |
| 20260505063004 | 69 | 182 | 1.7 | 5.2 | 0.00 | 0.00 | 0.00 | 87 | 1010.8 |
| 20260505062504 | 69 | 200 | 1.7 | 3.5 | 0.00 | 0.00 | 0.00 | 87 | 1010.9 |
| 20260505062004 | 69 | 204 | 1.7 | 4.3 | 0.00 | 0.00 | 0.00 | 87 | 1010.9 |
| 20260505061525 | 69 | 205 | 1.7 | 4.3 | 0.00 | 0.00 | 0.00 | 87 | 1011.0 |
| 20260505061025 | 69 | 183 | 2.6 | 7.8 | 0.00 | 0.00 | 0.00 | 86 | 1010.8 |
| 20260505060504 | 69 | 174 | 2.6 | 7.8 | 0.00 | 0.00 | 0.00 | 86 | 1010.8 |
| 20260505060025 | 69 | 185 | 1.7 | 7.8 | 0.00 | 0.00 | 0.00 | 86 | 1010.9 |
| 20260505055504 | 69 | 196 | 0.9 | 4.3 | 0.00 | 0.00 | 0.00 | 86 | 1011.0 |
| 20260505055004 | 69 | 207 | 0.9 | 3.5 | 0.00 | 0.00 | 0.00 | 86 | 1011.0 |
| 20260505054525 | 69 | 194 | 1.7 | 6.1 | 0.00 | 0.00 | 0.00 | 85 | 1011.1 |
| 20260505054025 | 69 | 188 | 1.7 | 6.1 | 0.00 | 0.00 | 0.00 | 85 | 1011.0 |
| 20260505053525 | 69 | 201 | 1.7 | 4.3 | 0.00 | 0.00 | 0.00 | 85 | 1011.0 |
| 20260505053004 | 69 | 194 | 1.7 | 4.3 | 0.00 | 0.00 | 0.00 | 85 | 1011.0 |
| 20260505052504 | 69 | 192 | 1.7 | 5.2 | 0.00 | 0.00 | 0.00 | 85 | 1011.1 |
| 20260505052004 | 69 | 200 | 1.7 | 5.2 | 0.00 | 0.00 | 0.00 | 84 | 1011.2 |
| 20260505051504 | 69 | 200 | 1.7 | 3.5 | 0.00 | 0.00 | 0.00 | 84 | 1011.3 |
| 20260505051025 | 69 | 196 | 1.7 | 7.8 | 0.00 | 0.00 | 0.00 | 84 | 1011.3 |
| 20260505050504 | 69 | 185 | 1.7 | 9.6 | 0.00 | 0.00 | 0.00 | 84 | 1011.2 |
| 20260505041504 | 70 | 200 | 1.7 | 4.3 | 0.00 | 0.00 | 0.00 | 81 | 1011.5 |
| 20260505041004 | 70 | 192 | 1.7 | 4.3 | 0.00 | 0.00 | 0.00 | 81 | 1011.6 |
| 20260505040504 | 70 | 193 | 1.7 | 4.3 | 0.00 | 0.00 | 0.00 | 81 | 1011.5 |
| 20260505040005 | 70 | 196 | 1.7 | 4.3 | 0.00 | 0.00 | 0.00 | 81 | 1011.5 |
| 20260505035504 | 70 | 195 | 2.6 | 7.8 | 0.00 | 0.00 | 0.00 | 81 | 1011.4 |
| 20260505035004 | 70 | 197 | 2.6 | 7.8 | 0.00 | 0.00 | 0.00 | 81 | 1011.4 |
| 20260505034504 | 71 | 193 | 1.7 | 6.1 | 0.00 | 0.00 | 0.00 | 81 | 1011.4 |
| 20260505034004 | 71 | 196 | 1.7 | 6.1 | 0.00 | 0.00 | 0.00 | 80 | 1011.3 |
| 20260505033504 | 71 | 198 | 1.7 | 6.1 | 0.00 | 0.00 | 0.00 | 80 | 1011.3 |
| 20260505033004 | 71 | 188 | 1.7 | 7.0 | 0.00 | 0.00 | 0.00 | 80 | 1011.3 |
| 20260505032504 | 71 | 188 | 1.7 | 7.0 | 0.00 | 0.00 | 0.00 | 80 | 1011.2 |
| 20260505032004 | 71 | 183 | 1.7 | 6.1 | 0.00 | 0.00 | 0.00 | 79 | 1011.3 |
| 20260505031504 | 71 | 187 | 1.7 | 6.1 | 0.00 | 0.00 | 0.00 | 79 | 1011.2 |
| 20260505031004 | 71 | 205 | 0.9 | 5.2 | 0.00 | 0.00 | 0.00 | 79 | 1011.4 |
| 20260505030504 | 71 | 195 | 1.7 | 4.3 | 0.00 | 0.00 | 0.00 | 79 | 1011.5 |
| 20260505030004 | 71 | 190 | 1.7 | 4.3 | 0.00 | 0.00 | 0.00 | 78 | 1011.5 |
| 20260505025504 | 71 | 198 | 1.7 | 4.3 | 0.00 | 0.00 | 0.00 | 78 | 1011.6 |
| 20260505025004 | 71 | 202 | 1.7 | 4.3 | 0.00 | 0.00 | 0.00 | 78 | 1011.6 |
| 20260505024504 | 71 | 195 | 1.7 | 6.1 | 0.00 | 0.00 | 0.00 | 77 | 1011.5 |
| 20260505024004 | 72 | 192 | 1.7 | 6.1 | 0.00 | 0.00 | 0.00 | 77 | 1011.5 |
| 20260505023504 | 72 | 191 | 1.7 | 5.2 | 0.00 | 0.00 | 0.00 | 77 | 1011.5 |
| 20260505023004 | 72 | 189 | 1.7 | 5.2 | 0.00 | 0.00 | 0.00 | 77 | 1011.4 |
| 20260505022504 | 72 | 189 | 1.7 | 5.2 | 0.00 | 0.00 | 0.00 | 76 | 1011.3 |
| 20260505022004 | 72 | 188 | 1.7 | 5.2 | 0.00 | 0.00 | 0.00 | 76 | 1011.2 |
| 20260505021504 | 72 | 203 | 1.7 | 5.2 | 0.00 | 0.00 | 0.00 | 76 | 1011.1 |
| 20260505021004 | 72 | 212 | 1.7 | 3.5 | 0.00 | 0.00 | 0.00 | 75 | 1011.1 |
| 20260505020525 | 72 | 200 | 1.7 | 9.6 | 0.00 | 0.00 | 0.00 | 75 | 1011.0 |
| 20260505020004 | 72 | 192 | 1.7 | 9.6 | 0.00 | 0.00 | 0.00 | 75 | 1010.9 |
| 20260505015504 | 72 | 184 | 1.7 | 6.1 | 0.00 | 0.00 | 0.00 | 74 | 1010.8 |
| 20260505015004 | 73 | 186 | 1.7 | 5.2 | 0.00 | 0.00 | 0.00 | 74 | 1010.9 |
| 20260505014504 | 73 | 193 | 1.7 | 5.2 | 0.00 | 0.00 | 0.00 | 74 | 1011.0 |
| 20260505014004 | 73 | 193 | 1.7 | 4.3 | 0.00 | 0.00 | 0.00 | 73 | 1011.0 |
| 20260505013525 | 73 | 195 | 1.7 | 4.3 | 0.00 | 0.00 | 0.00 | 73 | 1010.9 |
| 20260505013007 | 73 | 199 | 1.7 | 4.3 | 0.00 | 0.00 | 0.00 | 73 | 1010.7 |
| 20260505012504 | 73 | 193 | 0.9 | 4.3 | 0.00 | 0.00 | 0.00 | 73 | 1010.6 |
| 20260505012025 | 74 | 188 | 1.7 | 6.1 | 0.00 | 0.00 | 0.00 | 72 | 1010.6 |
| 20260505011504 | 74 | 195 | 1.7 | 6.1 | 0.00 | 0.00 | 0.00 | 72 | 1010.5 |
| 20260505011025 | 74 | 203 | 0.9 | 4.3 | 0.00 | 0.00 | 0.00 | 71 | 1010.6 |
| 20260505010504 | 74 | 196 | 1.7 | 4.3 | 0.00 | 0.00 | 0.00 | 70 | 1010.6 |
| 20260505010004 | 74 | 184 | 1.7 | 5.2 | 0.00 | 0.00 | 0.00 | 70 | 1010.6 |
| 20260505005503 | 75 | 190 | 1.7 | 5.2 | 0.00 | 0.00 | 0.00 | 69 | 1010.6 |
| 20260505005025 | 75 | 198 | 1.7 | 7.0 | 0.00 | 0.00 | 0.00 | 69 | 1010.7 |
| 20260505004504 | 75 | 193 | 1.7 | 7.0 | 0.00 | 0.00 | 0.00 | 69 | 1010.6 |
| 20260505004004 | 75 | 185 | 1.7 | 6.1 | 0.00 | 0.00 | 0.00 | 69 | 1010.7 |
| 20260505003504 | 75 | 186 | 1.7 | 6.1 | 0.00 | 0.00 | 0.00 | 69 | 1010.6 |
| 20260505003003 | 76 | 189 | 1.7 | 3.5 | 0.00 | 0.00 | 0.00 | 68 | 1010.6 |
| 20260505002504 | 76 | 183 | 1.7 | 6.1 | 0.00 | 0.00 | 0.00 | 68 | 1010.5 |
| 20260505002004 | 76 | 184 | 1.7 | 6.1 | 0.00 | 0.00 | 0.00 | 67 | 1010.7 |
| 20260505001504 | 76 | 191 | 1.7 | 9.6 | 0.00 | 0.00 | 0.00 | 67 | 1010.8 |
| 20260505001004 | 76 | 184 | 2.6 | 9.6 | 0.00 | 0.00 | 0.00 | 67 | 1010.8 |
| 20260505000525 | 77 | 181 | 1.7 | 9.6 | 0.00 | 0.00 | 0.00 | 66 | 1010.9 |
| 20260505000004 | 77 | 191 | 2.6 | 7.0 | 0.00 | 0.00 | 0.00 | 66 | 1010.8 |
| 20260504235504 | 77 | 360 | 1.7 | 7.0 | 0.00 | 0.00 | 0.00 | 65 | 1010.8 |
| 20260504235004 | 78 | 188 | 1.7 | 6.1 | 0.00 | 0.00 | 0.00 | 65 | 1010.7 |
| 20260504234504 | 78 | 181 | 2.6 | 8.7 | 0.00 | 0.00 | 0.00 | 64 | 1010.7 |
| 20260504234004 | 79 | 177 | 2.6 | 8.7 | 0.00 | 0.00 | 0.00 | 63 | 1010.8 |
| 20260504233503 | 79 | 177 | 1.7 | 5.2 | 0.00 | 0.00 | 0.00 | 62 | 1010.9 |
| 20260504233024 | 79 | 180 | 1.7 | 5.2 | 0.00 | 0.00 | 0.00 | 62 | 1010.8 |
| 20260504232504 | 79 | 173 | 1.7 | 5.2 | 0.00 | 0.00 | 0.00 | 61 | 1010.9 |
| 20260504232025 | 79 | 171 | 1.7 | 4.3 | 0.00 | 0.00 | 0.00 | 60 | 1011.1 |
| 20260504231525 | 80 | 175 | 0.9 | 4.3 | 0.00 | 0.00 | 0.00 | 61 | 1011.0 |
| 20260504231004 | 80 | 177 | 1.7 | 4.3 | 0.00 | 0.00 | 0.00 | 61 | 1011.1 |
| 20260504230524 | 80 | 180 | 1.7 | 4.3 | 0.00 | 0.00 | 0.00 | 61 | 1011.1 |
| 20260504230004 | 80 | 171 | 1.7 | 5.2 | 0.00 | 0.00 | 0.00 | 60 | 1011.1 |
| 20260504225504 | 80 | 167 | 2.6 | 6.1 | 0.00 | 0.00 | 0.00 | 60 | 1011.2 |
| 20260504225004 | 80 | 170 | 1.7 | 6.1 | 0.00 | 0.00 | 0.00 | 59 | 1011.2 |
| 20260504224504 | 81 | 174 | 2.6 | 6.1 | 0.00 | 0.00 | 0.00 | 58 | 1011.3 |
| 20260504224025 | 81 | 173 | 2.6 | 6.1 | 0.00 | 0.00 | 0.00 | 58 | 1011.3 |
| 20260504223504 | 81 | 178 | 1.7 | 6.1 | 0.00 | 0.00 | 0.00 | 56 | 1011.3 |
| 20260504223025 | 82 | 175 | 2.6 | 7.0 | 0.00 | 0.00 | 0.00 | 55 | 1011.4 |
| 20260504222525 | 82 | 169 | 2.6 | 7.0 | 0.00 | 0.00 | 0.00 | 55 | 1011.5 |
| 20260504222025 | 82 | 187 | 2.6 | 7.8 | 0.00 | 0.00 | 0.00 | 56 | 1011.6 |
| 20260504221504 | 82 | 197 | 2.6 | 7.8 | 0.00 | 0.00 | 0.00 | 52 | 1011.7 |
| 20260504221007 | 82 | 181 | 1.7 | 6.1 | 0.00 | 0.00 | 0.00 | 55 | 1011.6 |
| 20260504220504 | 82 | 168 | 2.6 | 7.8 | 0.00 | 0.00 | 0.00 | 54 | 1011.8 |
| 20260504220025 | 82 | 173 | 2.6 | 7.8 | 0.00 | 0.00 | 0.00 | 55 | 1011.8 |
| 20260504215504 | 82 | 189 | 2.6 | 8.7 | 0.00 | 0.00 | 0.00 | 56 | 1011.8 |
| 20260504215004 | 82 | 181 | 2.6 | 9.6 | 0.00 | 0.00 | 0.00 | 54 | 1011.6 |
| 20260504214504 | 82 | 165 | 3.5 | 10.4 | 0.00 | 0.00 | 0.00 | 55 | 1011.6 |
| 20260504214025 | 81 | 162 | 4.3 | 10.4 | 0.00 | 0.00 | 0.00 | 56 | 1011.8 |
| 20260504213504 | 81 | 159 | 4.3 | 9.6 | 0.00 | 0.00 | 0.00 | 54 | 1011.9 |
| 20260504213003 | 82 | 155 | 4.3 | 12.2 | 0.00 | 0.00 | 0.00 | 55 | 1012.0 |
| 20260504212525 | 82 | 165 | 3.5 | 12.2 | 0.00 | 0.00 | 0.00 | 53 | 1012.2 |
| 20260504212004 | 83 | 189 | 1.7 | 7.8 | 0.00 | 0.00 | 0.00 | 53 | 1012.4 |
| 20260504211504 | 82 | 203 | 2.6 | 7.0 | 0.00 | 0.00 | 0.00 | 53 | 1012.4 |
| 20260504211004 | 82 | 213 | 2.6 | 6.1 | 0.00 | 0.00 | 0.00 | 52 | 1012.6 |
| 20260504210504 | 82 | 216 | 2.6 | 6.1 | 0.00 | 0.00 | 0.00 | 52 | 1012.6 |
| 20260504210004 | 82 | 199 | 2.6 | 7.8 | 0.00 | 0.00 | 0.00 | 50 | 1012.6 |
| 20260504205525 | 82 | 181 | 2.6 | 7.8 | 0.00 | 0.00 | 0.00 | 52 | 1012.6 |
| 20260504205004 | 82 | 166 | 2.6 | 7.0 | 0.00 | 0.00 | 0.00 | 54 | 1012.6 |
| 20260504204504 | 82 | 162 | 3.5 | 8.7 | 0.00 | 0.00 | 0.00 | 54 | 1012.7 |
| 20260504204003 | 81 | 160 | 5.2 | 8.7 | 0.00 | 0.00 | 0.00 | 53 | 1012.7 |
| 20260504203503 | 82 | 164 | 4.3 | 11.3 | 0.00 | 0.00 | 0.00 | 53 | 1012.9 |
| 20260504203003 | 82 | 160 | 3.5 | 11.3 | 0.00 | 0.00 | 0.00 | 55 | 1013.0 |
| 20260504202524 | 82 | 176 | 3.5 | 8.7 | 0.00 | 0.00 | 0.00 | 52 | 1013.0 |
| 20260504202003 | 82 | 218 | 2.6 | 5.2 | 0.00 | 0.00 | 0.00 | 51 | 1013.4 |
| 20260504201504 | 82 | 170 | 2.6 | 8.7 | 0.00 | 0.00 | 0.00 | 53 | 1013.3 |
| 20260504201003 | 82 | 187 | 2.6 | 8.7 | 0.00 | 0.00 | 0.00 | 53 | 1013.4 |
| 20260504200504 | 82 | 208 | 3.5 | 8.7 | 0.00 | 0.00 | 0.00 | 51 | 1013.5 |
| 20260504200004 | 82 | 201 | 3.5 | 8.7 | 0.00 | 0.00 | 0.00 | 49 | 1013.6 |
| 20260504195504 | 82 | 214 | 2.6 | 7.8 | 0.00 | 0.00 | 0.00 | 52 | 1013.6 |
| 20260504195003 | 82 | 181 | 2.6 | 8.7 | 0.00 | 0.00 | 0.00 | 50 | 1013.6 |
| 20260504194504 | 82 | 151 | 2.6 | 8.7 | 0.00 | 0.00 | 0.00 | 51 | 1013.6 |
| 20260504194004 | 81 | 156 | 3.5 | 9.6 | 0.00 | 0.00 | 0.00 | 51 | 1013.8 |
| 20260504193525 | 81 | 156 | 3.5 | 9.6 | 0.00 | 0.00 | 0.00 | 48 | 1013.9 |
| 20260504193003 | 81 | 158 | 3.5 | 8.7 | 0.00 | 0.00 | 0.00 | 52 | 1014.0 |
| 20260504192503 | 82 | 170 | 2.6 | 7.8 | 0.00 | 0.00 | 0.00 | 49 | 1014.1 |
| 20260504192003 | 81 | 165 | 3.5 | 7.0 | 0.00 | 0.00 | 0.00 | 51 | 1014.2 |
| 20260504191504 | 81 | 182 | 2.6 | 7.0 | 0.00 | 0.00 | 0.00 | 50 | 1014.2 |
| 20260504191025 | 81 | 184 | 2.6 | 7.8 | 0.00 | 0.00 | 0.00 | 48 | 1014.4 |
| 20260504190504 | 81 | 162 | 3.5 | 9.6 | 0.00 | 0.00 | 0.00 | 50 | 1014.5 |
| 20260504190004 | 80 | 157 | 5.2 | 9.6 | 0.00 | 0.00 | 0.00 | 51 | 1014.5 |
| 20260504185504 | 80 | 154 | 4.3 | 10.4 | 0.00 | 0.00 | 0.00 | 50 | 1014.6 |
| 20260504185004 | 80 | 155 | 2.6 | 10.4 | 0.00 | 0.00 | 0.00 | 50 | 1014.7 |
| 20260504184504 | 80 | 164 | 2.6 | 7.8 | 0.00 | 0.00 | 0.00 | 49 | 1014.7 |
| 20260504184004 | 80 | 158 | 3.5 | 9.6 | 0.00 | 0.00 | 0.00 | 50 | 1014.7 |
| 20260504183503 | 79 | 160 | 4.3 | 9.6 | 0.00 | 0.00 | 0.00 | 50 | 1014.7 |
| 20260504183003 | 80 | 161 | 2.6 | 7.0 | 0.00 | 0.00 | 0.00 | 51 | 1014.8 |
| 20260504182503 | 79 | 153 | 3.5 | 9.6 | 0.00 | 0.00 | 0.00 | 52 | 1015.0 |
| 20260504182003 | 79 | 127 | 3.5 | 9.6 | 0.00 | 0.00 | 0.00 | 51 | 1015.0 |
| 20260504181503 | 79 | 20 | 2.6 | 7.8 | 0.00 | 0.00 | 0.00 | 52 | 1015.2 |
| 20260504181024 | 79 | 47 | 3.5 | 9.6 | 0.00 | 0.00 | 0.00 | 53 | 1015.4 |
| 20260504180503 | 79 | 356 | 2.6 | 9.6 | 0.00 | 0.00 | 0.00 | 53 | 1015.5 |
| 20260504180004 | 79 | 1 | 3.5 | 9.6 | 0.00 | 0.00 | 0.00 | 53 | 1015.6 |
| 20260504175503 | 78 | 360 | 3.5 | 9.6 | 0.00 | 0.00 | 0.00 | 53 | 1015.8 |
| 20260504175024 | 78 | 360 | 3.5 | 7.8 | 0.00 | 0.00 | 0.00 | 50 | 1015.8 |
| 20260504174524 | 78 | 1 | 2.6 | 7.0 | 0.00 | 0.00 | 0.00 | 54 | 1015.8 |
| 20260504174024 | 78 | 360 | 2.6 | 7.8 | 0.00 | 0.00 | 0.00 | 53 | 1015.8 |
| 20260504173503 | 77 | 359 | 2.6 | 7.8 | 0.00 | 0.00 | 0.00 | 52 | 1015.9 |
| 20260504173003 | 77 | 331 | 2.6 | 7.0 | 0.00 | 0.00 | 0.00 | 50 | 1015.9 |
| 20260504172524 | 78 | 348 | 3.5 | 8.7 | 0.00 | 0.00 | 0.00 | 54 | 1016.0 |
| 20260504172003 | 77 | 5 | 4.3 | 9.6 | 0.00 | 0.00 | 0.00 | 53 | 1016.1 |
| 20260504171504 | 77 | 2 | 3.5 | 9.6 | 0.00 | 0.00 | 0.00 | 52 | 1016.1 |
| 20260504171003 | 76 | 358 | 2.6 | 7.0 | 0.00 | 0.00 | 0.00 | 56 | 1016.1 |
| 20260504170531 | 76 | 358 | 2.6 | 7.0 | 0.00 | 0.00 | 0.00 | 51 | 1016.1 |
| 20260504151006 | 72 | 158 | 3.5 | 9.6 | 0.00 | 0.00 | 0.00 | 65 | 1017.1 |
| 20260504150524 | 72 | 155 | 2.6 | 9.6 | 0.00 | 0.00 | 0.00 | 65 | 1017.2 |
| 20260504141003 | 68 | 192 | 1.7 | 4.3 | 0.00 | 0.00 | 0.00 | 70 | 1017.4 |
| 20260504140524 | 68 | 179 | 2.6 | 7.0 | 0.00 | 0.00 | 0.00 | 71 | 1017.4 |
| 20260504130503 | 61 | 167 | 0.9 | 4.3 | 0.00 | 0.00 | 0.00 | 92 | 1017.2 |
| 20260504110525 | 56 | 0 | 0.0 | 0.0 | 0.00 | 0.01 | 0.00 | 89 | 1016.9 |
| 20260504100525 | 59 | 172 | 0.0 | 0.9 | 0.00 | 0.01 | 0.00 | 83 | 1017.1 |